Location: Gleizolles
(44.4833°N, 6.7667°E)
Time: 20:57:18
(UTC+00:00)

A-11 Canister half - Pass Details

Date: 28 June 2024
Orbit: 1524 x 1684 km, 47.3° (Epoch: 18 July)

Event Time Altitude Azimuth Distance (km) Brightness Sun altitude
Rises 09:23:06 0° 206° (SSW) 4,808 11.6 55.5°
Reaches altitude 10° 09:26:32 10° 199° (SSW) 3,801 11.3 56.1°
Maximum altitude 09:35:02 37° 136° (SE) 2,260 11.5 57.4°
Drops below altitude 10° 09:43:19 10° 74° (ENE) 3,715 11.5 58.6°
Sets 09:46:37 0° 66° (ENE) 4,689 11.8 59.1°
